Location: Brno
(49.2000°N, 16.6330°E)
Time: 22:16:28
(UTC+02:00)

Vanguard 3 - Pass Details

Date: 29 July 2021
Orbit: 510 x 3260 km, 33.3° (Epoch: 22 September)

Event Time Altitude Azimuth Distance (km) Brightness Sun altitude
Rises 01:05:10 0° 274° (W) 7,213 12.0 -22.0°
Reaches altitude 10° 01:11:03 10° 265° (W) 6,191 11.5 -22.0°
Maximum altitude 01:25:46 29° 216° (SW) 4,320 10.3 -21.8°
Enters shadow 01:28:58 27° 200° (SSW) 4,228 10.2 -21.7°
